Location: Sunnyvale
(37.3814°N, 122.0645°W)
Time: 16:06:54
(UTC-08:00)

BlueWalker 3 - Pass Details

Date: 22 December 2025
Orbit: 452 x 463 km, 53.2° (Epoch: 13 January)

Event Time Altitude Azimuth Distance (km) Brightness Sun altitude
Exits shadow 06:26:31 10° 256° (WSW) 1,597 4.0 -10.3°
Reaches altitude 10° 06:26:34 10° 256° (WSW) 1,582 4.0 -10.3°
Maximum altitude 06:29:52 35° 324° (NW) 751 2.4 -9.7°
Drops below altitude 10° 06:33:11 10° 32° (NNE) 1,595 4.6 -9.1°
Sets 06:35:27 0° 41° (NE) 2,473 5.7 -8.7°
